FW2897 Weather Reports


Display with metric or nautical units.
time (UTC)temp
F
wind
direction
speed
MPH
gust
MPH
rain 1hr
in
rain 24hr
in
rain mn
in
humidity
%
barometer
mb
20260507222040 67 267 1.0 5.0 0.00 0.11 0.11 32 1007.9
20260507221538 67 229 1.0 3.0 0.00 0.11 0.11 35 1007.8
20260507221227 67 45 1.0 5.0 0.00 0.11 0.11 33 1007.9
20260507220453 67 297 1.0 5.0 0.00 0.11 0.11 34 1007.9
20260507215951 67 252 2.0 8.0 0.00 0.11 0.11 34 1007.8
20260507215446 67 332 3.0 9.0 0.00 0.11 0.11 33 1007.9
20260507214942 68 285 2.0 9.0 0.00 0.11 0.11 32 1007.9
20260507214445 68 319 1.0 4.0 0.00 0.11 0.11 32 1008.0
20260507213933 68 250 1.0 5.0 0.00 0.11 0.11 33 1008.0
20260507213702 68 235 1.0 3.0 0.00 0.11 0.11 33 1008.0
20260507212908 67 225 2.0 8.0 0.00 0.11 0.11 35 1008.0
20260507212344 67 297 2.0 8.0 0.00 0.11 0.11 32 1007.9
20260507212045 67 290 2.0 8.0 0.00 0.11 0.11 34 1008.0
20260507211312 67 300 1.0 7.0 0.00 0.11 0.11 33 1007.9
20260507211303 68 172 2.0 7.0 0.00 0.11 0.11 34 1007.9
20260507210320 68 272 1.0 6.0 0.00 0.11 0.11 32 1007.9
20260507205740 67 280 1.0 4.0 0.00 0.11 0.11 37 1007.8
20260507205229 67 240 1.0 4.0 0.00 0.11 0.11 34 1007.7
20260507204723 68 205 2.0 8.0 0.00 0.11 0.11 33 1007.7
20260507204228 67 256 2.0 8.0 0.00 0.11 0.11 35 1007.8
20260507203721 67 312 1.0 8.0 0.00 0.11 0.11 34 1007.8
20260507203709 68 290 1.0 4.0 0.00 0.11 0.11 37 1007.7
20260507202651 68 272 1.0 6.0 0.00 0.11 0.11 36 1007.7
20260507202145 67 302 1.0 6.0 0.00 0.11 0.11 37 1007.6
20260507201846 67 240 1.0 8.0 0.00 0.11 0.11 37 1007.7
20260507201054 67 300 2.0 6.0 0.00 0.11 0.11 37 1007.7
20260507200530 67 341 2.0 7.0 0.00 0.11 0.11 37 1007.8
20260507200232 67 75 1.0 7.0 0.00 0.11 0.11 37 1007.9
20260507195514 67 271 1.0 6.0 0.00 0.11 0.11 38 1007.9
20260507195014 67 60 2.0 6.0 0.00 0.11 0.11 43 1008.0
20260507194445 66 335 1.0 5.0 0.00 0.11 0.11 42 1008.0
20260507193944 66 288 1.0 3.0 0.00 0.11 0.11 37 1008.1
20260507193419 67 77 1.0 6.0 0.00 0.11 0.11 37 1008.3
20260507193120 66 265 1.0 6.0 0.00 0.11 0.11 40 1008.1
20260507192324 66 295 2.0 9.0 0.00 0.11 0.11 39 1008.2
20260507191819 66 317 2.0 9.0 0.00 0.11 0.11 38 1008.4
20260507191318 67 282 1.0 8.0 0.00 0.11 0.11 38 1008.4
20260507190826 67 217 1.0 5.0 0.00 0.11 0.11 41 1008.4
20260507190313 66 129 1.0 5.0 0.00 0.11 0.11 40 1008.8
20260507190259 66 96 1.0 3.0 0.00 0.11 0.11 39 1008.8
20260507185247 65 90 1.0 5.0 0.00 0.11 0.11 40 1009.1
20260507184746 65 110 1.0 5.0 0.00 0.11 0.11 41 1009.2
20260507184220 65 86 1.0 7.0 0.00 0.11 0.11 40 1009.4
20260507183713 65 132 2.0 8.0 0.00 0.11 0.11 40 1009.4
20260507183212 65 230 2.0 8.0 0.00 0.11 0.11 41 1009.4
20260507182643 66 300 1.0 6.0 0.00 0.11 0.11 40 1009.5
20260507182142 65 340 2.0 6.0 0.00 0.11 0.11 42 1009.3
20260507181613 65 164 2.0 6.0 0.00 0.11 0.11 41 1009.2
20260507181111 65 213 1.0 6.0 0.00 0.11 0.11 42 1009.3
20260507180608 65 337 1.0 4.0 0.00 0.11 0.11 45 1009.3
20260507180112 64 197 1.0 6.0 0.00 0.11 0.11 42 1009.4
20260507175535 64 334 2.0 10.0 0.00 0.11 0.11 41 1009.4
20260507175034 64 236 2.0 10.0 0.00 0.11 0.11 41 1009.6
20260507174532 65 214 2.0 9.0 0.00 0.11 0.11 43 1009.7
20260507174006 64 300 2.0 9.0 0.00 0.11 0.11 42 1009.8
20260507173439 65 275 1.0 8.0 0.00 0.11 0.11 41 1009.7
20260507172937 65 234 1.0 6.0 0.00 0.11 0.11 44 1009.8
20260507172407 64 220 1.0 6.0 0.00 0.11 0.11 42 1009.9
20260507171919 64 283 1.0 6.0 0.00 0.11 0.11 43 1009.9
20260507171337 64 148 1.0 8.0 0.00 0.11 0.11 43 1010.3
20260507170839 64 284 2.0 9.0 0.00 0.11 0.11 42 1010.5
20260507170308 64 326 2.0 9.0 0.00 0.11 0.11 41 1010.5
20260507165808 64 332 2.0 7.0 0.00 0.11 0.11 46 1010.5
20260507165500 64 42 2.0 6.0 0.00 0.11 0.11 46 1010.6
20260507164734 64 149 1.0 5.0 0.00 0.11 0.11 46 1010.7
20260507164232 63 213 2.0 5.0 0.00 0.11 0.11 48 1010.8
20260507163728 63 206 2.0 5.0 0.00 0.11 0.11 50 1010.8
20260507163206 62 205 1.0 3.0 0.00 0.11 0.11 47 1010.9
20260507162638 62 243 1.0 2.0 0.00 0.11 0.11 47 1011.0
20260507162120 61 108 1.0 5.0 0.00 0.11 0.11 47 1011.2
20260507161555 61 78 1.0 5.0 0.00 0.12 0.11 51 1011.3
20260507161019 60 251 1.0 4.0 0.00 0.12 0.11 50 1011.2
20260507160455 61 237 1.0 6.0 0.00 0.13 0.11 50 1011.3
20260507155927 61 340 1.0 5.0 0.00 0.13 0.11 52 1011.3
20260507155429 62 198 1.0 6.0 0.00 0.13 0.11 52 1011.4
20260507154921 61 276 1.0 6.0 0.00 0.14 0.11 51 1011.3
20260507154419 61 115 1.0 7.0 0.00 0.14 0.11 53 1011.4
20260507153856 61 351 1.0 7.0 0.00 0.15 0.11 55 1011.5
20260507153557 60 204 1.0 6.0 0.00 0.16 0.11 57 1011.6
20260507152830 60 234 1.0 8.0 0.00 0.16 0.11 57 1011.6
20260507152306 60 138 2.0 8.0 0.00 0.16 0.11 58 1011.7
20260507151808 59 200 2.0 8.0 0.00 0.17 0.11 58 1011.8
20260507151245 59 323 2.0 7.0 0.00 0.17 0.11 57 1012.0
20260507150725 58 245 2.0 8.0 0.00 0.18 0.11 60 1011.9
20260507150216 57 334 1.0 8.0 0.00 0.18 0.11 61 1012.0
20260507145944 58 13 1.0 4.0 0.00 0.18 0.11 62 1012.0
20260507145214 57 253 1.0 4.0 0.00 0.18 0.11 63 1012.1
20260507144713 57 265 0.0 3.0 0.00 0.18 0.11 65 1012.3
20260507144220 57 222 1.0 4.0 0.00 0.18 0.11 67 1012.1
20260507143648 57 304 1.0 6.0 0.00 0.18 0.11 65 1012.3
20260507143130 56 281 2.0 8.0 0.00 0.18 0.11 66 1012.3
20260507142608 56 345 2.0 8.0 0.00 0.18 0.11 66 1012.3
20260507142043 56 214 1.0 8.0 0.00 0.18 0.11 67 1012.3
20260507141533 56 314 1.0 8.0 0.00 0.18 0.11 67 1012.3
20260507141012 56 13 1.0 7.0 0.00 0.18 0.11 69 1012.3
20260507140514 56 300 0.0 3.0 0.00 0.18 0.11 70 1012.4
20260507135947 56 18 0.0 3.0 0.00 0.18 0.11 72 1012.5
20260507135915 55 224 0.0 3.0 0.00 0.18 0.11 71 1012.5
20260507134921 55 271 1.0 6.0 0.00 0.18 0.11 74 1012.5
20260507134632 54 335 1.0 6.0 0.00 0.18 0.11 72 1012.6
20260507133834 54 303 1.0 7.0 0.00 0.18 0.11 74 1012.6
20260507133557 54 295 1.0 7.0 0.00 0.18 0.11 73 1012.7
20260507133033 54 310 0.0 5.0 0.00 0.18 0.11 76 1012.6
20260507132309 54 296 1.0 5.0 0.00 0.18 0.11 75 1012.5
20260507131748 54 304 1.0 5.0 0.00 0.18 0.11 76 1012.5
20260507131215 53 290 1.0 5.0 0.00 0.18 0.11 78 1012.5
20260507130712 53 259 0.0 3.0 0.00 0.18 0.11 81 1012.5
20260507130220 53 167 1.0 4.0 0.00 0.18 0.11 84 1012.5
20260507125640 53 255 1.0 5.0 0.00 0.18 0.11 84 1012.5
20260507125115 53 267 0.0 3.0 0.00 0.18 0.11 84 1012.5
20260507124617 53 303 1.0 3.0 0.00 0.18 0.11 86 1012.6
20260507124100 53 297 0.0 3.0 0.00 0.18 0.11 86 1012.6
20260507123604 53 9 0.0 3.0 0.00 0.18 0.11 87 1012.4
20260507123056 53 321 0.0 3.0 0.00 0.18 0.11 87 1012.5
20260507122554 53 295 0.0 3.0 0.00 0.18 0.11 87 1012.5
20260507122050 53 281 0.0 1.0 0.00 0.18 0.11 88 1012.5
20260507121550 53 262 0.0 2.0 0.00 0.18 0.11 88 1012.5
20260507121248 52 278 0.0 2.0 0.00 0.18 0.11 88 1012.4
20260507120519 52 311 0.0 0.0 0.00 0.18 0.11 89 1012.3
20260507115952 52 311 0.0 1.0 0.00 0.18 0.11 89 1012.3
20260507115448 52 321 0.0 1.0 0.00 0.18 0.11 89 1012.4
20260507115152 52 322 0.0 2.0 0.00 0.18 0.11 89 1012.2
20260507114420 52 322 0.0 2.0 0.00 0.18 0.11 89 1012.3
20260507114144 52 295 0.0 3.0 0.00 0.18 0.11 89 1012.1
20260507113349 52 277 0.0 3.0 0.00 0.18 0.11 89 1012.3
20260507113338 52 290 0.0 1.0 0.00 0.18 0.11 89 1012.1
20260507112343 52 289 0.0 1.0 0.00 0.18 0.11 89 1012.2
20260507111838 52 289 0.0 0.0 0.00 0.18 0.11 90 1012.2
20260507111333 52 289 0.0 0.0 0.00 0.18 0.11 90 1012.2
20260507111056 52 289 0.0 0.0 0.00 0.18 0.11 90 1012.1
20260507110303 51 289 0.0 0.0 0.00 0.18 0.11 90 1011.8
20260507105759 51 289 0.0 0.0 0.00 0.18 0.11 90 1011.9
20260507105738 51 289 0.0 0.0 0.00 0.18 0.11 90 1011.8
20260507104752 51 256 0.0 0.0 0.00 0.18 0.11 90 1011.8
20260507104222 51 256 0.0 0.0 0.00 0.18 0.11 90 1011.8
20260507103720 51 256 0.0 0.0 0.00 0.18 0.11 90 1011.6
20260507103217 51 256 0.0 0.0 0.00 0.18 0.11 89 1011.5
20260507102714 51 256 0.0 0.0 0.00 0.18 0.11 89 1011.5
20260507102150 51 256 0.0 0.0 0.00 0.18 0.11 89 1011.6
20260507101851 51 256 0.0 0.0 0.00 0.18 0.11 89 1011.5
20260507101352 51 256 0.0 0.0 0.00 0.18 0.11 89 1011.3
20260507100844 51 256 0.0 0.0 0.00 0.18 0.11 89 1011.1
20260507095825 51 256 0.0 0.0 0.00 0.18 0.11 89 1011.3
20260507095018 51 256 0.0 0.0 0.00 0.18 0.11 89 1011.3
20260507094516 50 256 0.0 0.0 0.01 0.18 0.11 89 1011.2
20260507093951 50 256 0.0 0.0 0.01 0.18 0.11 89 1011.3
20260507093442 50 256 0.0 0.0 0.01 0.18 0.11 89 1011.2
20260507092943 50 256 0.0 0.0 0.01 0.18 0.11 89 1011.1
20260507092701 51 256 0.0 0.0 0.01 0.18 0.11 89 1011.1
20260507091936 51 256 0.0 0.0 0.01 0.18 0.11 88 1011.2
20260507091631 51 256 0.0 0.0 0.01 0.18 0.11 88 1011.2
20260507091142 51 256 0.0 0.0 0.01 0.18 0.11 88 1011.1
20260507090401 51 256 0.0 1.0 0.01 0.18 0.11 88 1010.8
20260507085858 51 258 0.0 1.0 0.01 0.18 0.11 88 1010.5
20260507085626 51 258 0.0 1.0 0.01 0.18 0.11 88 1010.5
20260507084837 51 318 0.0 1.0 0.01 0.18 0.11 88 1010.5
20260507084300 51 319 0.0 2.0 0.00 0.17 0.10 87 1010.7
20260507083757 51 165 0.0 2.0 0.00 0.17 0.10 87 1010.7
20260507083231 51 245 0.0 2.0 0.00 0.17 0.10 87 1010.6
20260507082730 51 223 0.0 2.0 0.00 0.17 0.10 88 1010.6
20260507082202 51 243 0.0 2.0 0.00 0.17 0.10 88 1010.4
20260507081703 51 217 0.0 2.0 0.00 0.17 0.10 88 1010.4
20260507081140 52 223 0.0 2.0 0.00 0.17 0.10 88 1010.5
20260507080641 52 134 0.0 2.0 0.00 0.17 0.10 89 1010.5
20260507080119 52 245 0.0 2.0 0.00 0.17 0.10 89 1010.5
20260507075821 52 221 0.0 2.0 0.00 0.17 0.10 88 1010.4
20260507075051 52 221 0.0 4.0 0.00 0.17 0.10 88 1010.6
20260507074554 52 261 0.0 4.0 0.00 0.17 0.10 88 1010.8
20260507074038 52 299 0.0 2.0 0.00 0.17 0.10 88 1010.6
20260507073801 52 300 0.0 2.0 0.00 0.17 0.10 88 1010.4
20260507073011 52 244 0.0 3.0 0.00 0.17 0.10 88 1010.6
20260507072449 52 216 0.0 3.0 0.00 0.17 0.10 88 1010.6
20260507071923 52 280 0.0 2.0 0.00 0.17 0.10 88 1010.6
20260507071417 52 251 0.0 2.0 0.00 0.17 0.10 88 1010.7
20260507070857 52 254 0.0 2.0 0.00 0.17 0.10 88 1010.9
20260507070355 52 5 0.0 3.0 0.00 0.17 0.10 88 1011.0
20260507065851 52 322 0.0 3.0 0.00 0.17 0.10 88 1010.8
20260507065350 53 8 1.0 7.0 0.00 0.17 0.10 87 1011.0
20260507064848 53 285 1.0 7.0 0.01 0.17 0.10 87 1011.2
20260507064347 53 77 1.0 6.0 0.01 0.17 0.10 87 1011.2
20260507063828 53 323 0.0 6.0 0.01 0.17 0.10 87 1010.9
20260507063554 53 233 0.0 4.0 0.01 0.17 0.10 88 1010.4
20260507062805 53 345 1.0 4.0 0.01 0.17 0.10 87 1010.4
20260507062244 54 303 0.0 4.0 0.10 0.17 0.10 87 1010.3
20260507061720 55 238 0.0 1.0 0.10 0.17 0.10 88 1010.0
20260507061153 55 354 1.0 5.0 0.10 0.17 0.10 87 1010.4
20260507060628 55 309 2.0 7.0 0.10 0.17 0.10 87 1010.4
20260507060118 55 237 2.0 8.0 0.10 0.17 0.10 87 1010.3
20260507055606 56 112 2.0 8.0 0.10 0.17 0.10 87 1010.5
20260507055305 56 288 1.0 6.0 0.09 0.16 0.09 87 1010.7
20260507054544 57 296 1.0 6.0 0.09 0.16 0.09 87 1010.3
20260507054037 57 319 1.0 5.0 0.09 0.16 0.09 86 1010.1
20260507053812 58 295 1.0 7.0 0.09 0.16 0.09 86 1010.0
20260507053233 58 331 2.0 7.0 0.09 0.16 0.09 85 1010.7
20260507052509 59 217 1.0 4.0 0.05 0.12 0.07 84 1009.9
20260507051942 59 280 0.0 5.0 0.00 0.07 0.00 84 1010.3
20260507051418 59 288 1.0 10.0 0.00 0.07 0.00 83 1009.7
20260507050848 60 291 1.0 10.0 0.00 0.07 0.00 82 1009.7
20260507050320 60 323 1.0 3.0 0.00 0.07 0.00 82 1009.9
20260507045819 60 274 1.0 4.0 0.00 0.07 0.00 82 1009.8
20260507045519 60 64 1.0 8.0 0.00 0.07 0.00 81 1009.5
20260507044748 60 289 2.0 8.0 0.00 0.07 0.00 81 1009.5
20260507044220 60 296 2.0 10.0 0.00 0.07 0.00 80 1009.5
20260507043718 61 286 1.0 10.0 0.00 0.07 0.00 80 1009.3
20260507043414 61 285 1.0 6.0 0.00 0.07 0.00 81 1009.1
20260507042649 61 245 1.0 6.0 0.00 0.07 0.00 81 1009.1
20260507042144 62 274 0.0 5.0 0.00 0.07 0.00 83 1009.3
20260507041643 62 311 1.0 5.0 0.00 0.07 0.00 82 1009.3
20260507041344 62 287 1.0 5.0 0.00 0.07 0.00 82 1009.2
20260507040612 62 301 2.0 8.0 0.00 0.07 0.00 82 1009.1
20260507040100 62 340 2.0 8.0 0.00 0.07 0.00 81 1009.1
20260507035544 62 311 2.0 9.0 0.00 0.07 0.07 81 1009.1
20260507035039 62 288 3.0 9.0 0.00 0.07 0.07 80 1009.3
20260507034532 63 303 2.0 7.0 0.00 0.07 0.07 80 1009.3
20260507034031 63 305 2.0 7.0 0.00 0.07 0.07 79 1009.2
20260507033503 63 309 1.0 6.0 0.00 0.07 0.07 79 1009.1
20260507033001 63 319 2.0 8.0 0.00 0.07 0.07 79 1009.1
20260507032457 64 298 3.0 7.0 0.00 0.07 0.07 79 1009.3
20260507031954 64 289 3.0 11.0 0.00 0.07 0.07 78 1009.2
20260507031711 64 297 3.0 9.0 0.00 0.07 0.07 79 1009.3
20260507030950 64 292 2.0 7.0 0.00 0.07 0.07 81 1008.9
20260507030422 65 289 3.0 10.0 0.00 0.07 0.07 82 1008.7
20260507025919 65 309 2.0 10.0 0.00 0.07 0.07 82 1008.8
20260507025353 65 309 2.0 9.0 0.00 0.07 0.07 81 1008.8
20260507024844 65 292 3.0 11.0 0.00 0.07 0.07 80 1008.8
20260507024343 66 325 3.0 11.0 0.00 0.07 0.07 81 1009.1
20260507023834 66 305 1.0 6.0 0.00 0.07 0.07 82 1009.3
20260507023606 67 285 1.0 4.0 0.00 0.07 0.07 82 1009.2
20260507022807 67 294 0.0 3.0 0.00 0.07 0.07 81 1008.8
20260507022238 67 328 0.0 2.0 0.00 0.07 0.07 81 1008.8
20260507022001 67 332 0.0 2.0 0.00 0.07 0.07 81 1008.7
20260507021224 67 245 0.0 2.0 0.00 0.07 0.07 81 1008.7
20260507020740 67 108 0.0 2.0 0.00 0.07 0.07 81 1008.8
20260507020214 67 188 0.0 3.0 0.00 0.07 0.07 80 1008.8
20260507015713 67 292 0.0 3.0 0.00 0.07 0.07 80 1009.0
20260507015144 67 252 0.0 4.0 0.00 0.07 0.07 80 1009.1
20260507014643 67 242 0.0 4.0 0.00 0.07 0.07 80 1009.2
20260507014115 67 124 0.0 2.0 0.00 0.07 0.07 81 1009.1
20260507013613 67 225 0.0 1.0 0.00 0.07 0.07 81 1008.8
20260507013542 67 208 0.0 0.0 0.00 0.07 0.07 81 1008.9
20260507012543 67 210 0.0 0.0 0.00 0.07 0.07 80 1008.8
20260507012018 67 226 0.0 0.0 0.00 0.07 0.07 80 1008.8
20260507011712 67 198 0.0 1.0 0.00 0.07 0.07 80 1008.8
20260507011149 67 176 0.0 2.0 0.00 0.07 0.07 80 1008.8
20260507010421 67 207 0.0 2.0 0.00 0.07 0.07 80 1008.7
20260507005855 67 163 0.0 4.0 0.00 0.07 0.07 80 1008.9
20260507005327 67 305 1.0 4.0 0.00 0.07 0.07 79 1008.8
20260507005052 67 117 0.0 3.0 0.00 0.07 0.07 79 1008.9
20260507004325 67 195 0.0 2.0 0.00 0.07 0.07 79 1008.9
20260507003823 67 359 0.0 1.0 0.00 0.07 0.07 79 1008.9
20260507003300 67 359 0.0 1.0 0.00 0.07 0.07 79 1008.8
20260507002954 67 359 0.0 1.0 0.00 0.07 0.07 79 1008.7
20260507002435 67 359 0.0 1.0 0.00 0.07 0.07 78 1008.5
20260507001711 68 359 0.0 1.0 0.00 0.07 0.07 78 1008.4
20260507001208 68 359 0.0 1.0 0.00 0.07 0.07 77 1008.2
20260507000711 68 359 0.0 1.0 0.00 0.07 0.07 77 1008.2
20260507000150 68 359 0.0 2.0 0.00 0.07 0.07 76 1008.0
20260506235649 69 239 1.0 6.0 0.00 0.07 0.07 76 1008.1
20260506235150 69 245 1.0 6.0 0.00 0.07 0.07 76 1008.1
20260506234648 69 214 1.0 3.0 0.00 0.07 0.07 76 1008.0
20260506234149 69 314 0.0 3.0 0.00 0.07 0.07 76 1008.1
20260506233900 69 355 0.0 2.0 0.00 0.07 0.07 76 1008.2
20260506233401 69 354 0.0 2.0 0.00 0.07 0.07 75 1008.2
20260506232631 69 118 1.0 2.0 0.00 0.07 0.07 75 1008.1
20260506232104 69 204 1.0 5.0 0.00 0.07 0.07 75 1008.1
20260506231551 69 208 1.0 4.0 0.00 0.07 0.07 75 1007.8
20260506231518 69 192 1.0 2.0 0.00 0.07 0.07 74 1007.9
20260506230514 69 238 1.0 6.0 0.00 0.07 0.07 74 1007.9
20260506230013 69 245 1.0 6.0 0.00 0.07 0.07 74 1007.9
20260506225516 70 256 1.0 5.0 0.00 0.07 0.07 74 1008.1
20260506224955 70 198 2.0 6.0 0.00 0.07 0.07 74 1008.0
20260506224430 70 251 1.0 6.0 0.00 0.07 0.07 74 1008.1
20260506223909 70 190 1.0 6.0 0.00 0.07 0.07 74 1008.0
20260506223414 70 160 1.0 4.0 0.00 0.07 0.07 74 1008.1
20260506223410 70 206 1.0 4.0 0.00 0.07 0.07 74 1008.1
20260506222411 70 193 1.0 5.0 0.00 0.07 0.07 73 1008.0